Date,TemperatureHighF,TemperatureAvgF,TemperatureLowF,DewpointHighF,DewpointAvgF,DewpointLowF,HumidityHigh,HumidityAvg,HumidityLow,PressureMaxIn,PressureMinIn,WindSpeedMaxMPH,WindSpeedAvgMPH,GustSpeedMaxMPH,PrecipitationSumIn
2013-1-1,52.7,42.4,33.9,37.8,35.2,31.9,94,78,49,30.28,30.22,14,2,16,0.00
2013-1-2,60.8,41.6,30.1,37.4,32.9,28.8,96,76,35,30.26,30.13,6,1,8,0.00
2013-1-3,61.7,41.4,30.2,39.3,34.1,28.8,95,79,34,30.27,30.17,5,1,6,0.00
2013-1-4,63.1,44.5,33.9,41.0,36.0,32.0,95,76,37,30.30,30.18,7,1,8,0.00
2013-1-5,57.5,46.5,36.3,47.7,41.6,34.3,93,84,61,30.27,30.08,10,1,12,0.01
2013-1-6,50.5,45.8,38.6,46.3,42.8,37.0,94,89,75,30.20,30.06,7,1,9,0.02
2013-1-7,62.4,45.9,35.2,47.7,41.2,34.0,95,85,56,30.27,30.16,6,1,8,0.00
2013-1-8,65.8,49.5,40.2,50.1,42.6,38.7,95,80,47,30.24,30.13,6,1,7,0.00
2013-1-9,56.4,46.2,39.9,47.6,41.5,36.8,94,84,66,30.15,30.02,11,1,14,0.00
2013-1-10,53.6,43.8,37.2,37.5,35.0,31.9,92,73,45,30.21,30.09,11,2,14,0.00
2013-1-11,54.5,43.2,32.7,39.3,34.6,30.4,93,73,46,30.27,30.14,8,1,9,0.00
2013-1-12,52.7,40.4,32.1,41.5,28.3,17.1,96,68,25,30.26,30.15,6,1,8,0.00
2013-1-13,52.8,37.9,27.5,30.4,26.3,15.7,94,68,25,30.29,30.18,6,1,7,0.00
2013-1-14,56.1,39.5,28.3,27.0,21.5,13.6,80,53,22,30.42,30.23,7,1,8,0.00
2013-1-15,58.8,41.0,28.6,31.3,27.5,21.6,92,64,27,30.49,30.40,8,1,9,0.00
2013-1-16,64.2,42.5,29.7,35.7,30.7,26.2,94,68,26,30.44,30.26,7,1,7,0.00
2013-1-17,66.3,44.8,30.8,37.9,33.4,29.0,94,69,31,30.27,30.15,6,1,7,0.00
2013-1-18,68.7,47.3,33.4,38.9,34.9,31.2,93,68,28,30.24,30.13,7,1,9,0.00
2013-1-19,66.9,47.5,32.1,40.3,35.7,30.2,94,68,33,30.26,30.16,8,1,8,0.00
2013-1-20,68.9,46.9,32.3,40.7,33.9,29.3,94,67,25,30.24,30.13,8,1,10,0.00
2013-1-21,68.0,46.3,31.9,42.3,35.0,29.8,94,70,30,30.19,30.08,7,1,8,0.00
2013-1-22,64.9,48.1,33.9,42.2,37.4,32.0,94,71,34,30.11,30.00,5,1,6,0.00
2013-1-23,54.1,49.9,46.2,49.1,45.0,41.1,92,83,72,30.09,29.96,5,1,6,0.04
2013-1-24,57.9,53.2,49.8,51.3,49.4,47.8,93,87,73,30.20,30.07,5,1,6,0.00
2013-1-25,66.2,56.8,50.7,53.7,51.3,48.1,93,83,61,30.20,30.05,8,1,9,0.00
2013-1-26,61.3,50.8,43.8,49.0,42.1,34.8,94,75,40,30.10,30.02,12,1,13,0.00
2013-1-27,58.4,48.1,39.5,40.0,36.8,27.5,91,68,33,30.19,30.09,9,2,11,0.00
2013-1-28,59.9,48.5,40.1,41.7,39.0,35.8,88,71,46,30.31,30.18,10,2,13,0.00
2013-1-29,60.8,48.0,39.9,43.6,40.0,36.5,93,76,45,30.37,30.28,7,1,8,0.00
2013-1-30,69.8,51.5,39.0,42.6,39.4,36.9,93,69,32,30.35,30.26,7,1,9,0.00
2013-1-31,69.8,49.5,36.5,45.0,40.3,34.7,94,74,40,30.30,30.18,8,1,9,0.00